Regional Weather Roundup
Issued by NWS

Home | Current Version | Previous Version | Text Only | Print | Product List | Glossary Off
Versions: 1 2 3 4 5 6 7 8 9 10 11 12 13 14 15 16 17 18 19 20 21 22 23 24 25 26 27 28 29 30 31 32 33 34 35 36 37 38 39 40 41 42 43 44 45 46 47 48 49 50

896
ASUS45 KBOU 241810
RWRCO

WEATHER ROUNDUP FOR COLORADO
NATIONAL WEATHER SERVICE PUEBLO CO
1100 AM MST SAT FEB 24 2018

NOTE: "FAIR" INDICATES FEW OR NO CLOUDS BELOW 12000 FEET WITH NO
SIGNIFICANT WEATHER AND/OR OBSTRUCTIONS TO VISIBILITY.

COZ001>005-013-030-031-241900-
...NORTHWEST COLORADO...

CITY           SKY/WX    TMP DP  RH WIND       PRES   REMARKS
CRAIG          CLOUDY    16   8  71 W3        30.01S
HAYDEN         PTSUNNY   21   9  58 CALM      29.99F HAZE
MEEKER         PTSUNNY   19   2  47 W7        30.00S WCI  10
RABBIT EARS PA NOT AVBL
STEAMBOAT SPGS CLOUDY    13   6  75 W5        29.95F WCI   5
WALDEN         CLOUDY    14  -6  41 W20G26    29.82S WCI  -3
$$

COZ006>008-011-241900-
...WEST CENTRAL VALLEYS...

CITY           SKY/WX    TMP DP  RH WIND       PRES   REMARKS
GRAND JUNCTION SUNNY     28  13  53 N5        30.09S WCI  23
MONTROSE       SUNNY     24   4  42 CALM      30.08S
EAGLE          MOSUNNY   23   5  46 SW23      29.98S WCI   7
RIFLE          MOSUNNY   22  10  60 W12       30.05R WCI  10
DELTA          NOT AVBL
NUCLA          FAIR      23  12  63 CALM      30.13S
$$

COZ017>023-064>068-241900-
...SOUTHWEST COLORADO...

CITY           SKY/WX    TMP DP  RH WIND       PRES   REMARKS
DURANGO        SUNNY     27   3  35 W16G32    30.00S WCI  15
CORTEZ         SUNNY     28   9  44 N9        30.09F WCI  19
PAGOSA SPRINGS FAIR      24  -2  31 SW12G17   29.96F WCI  13
TELLURIDE      SUNNY     15 -10  32 CALM      29.97S
WOLF CREEK PAS CLOUDY     0  -2  92 SW14G20   29.85R WCI -19
$$

COZ009-010-012-014-032>034-037-058>063-241900-
...CENTRAL COLORADO...

CITY           SKY/WX    TMP DP  RH WIND       PRES   REMARKS
ASPEN          CLOUDY    17   6  62 VRB5      29.90S WCI  10
BUENA VISTA    FAIR      24 -10  21 W26G38    29.78S WCI   8
COPPER MTN     CLOUDY     1  -6  71 W22G28    29.67S WCI -21
BERTHOUD PASS  SNOW      -8 -18  59 NW45G54   29.52F VSB<1/4 WCI -41
COTTONWOOD PAS MOSUNNY   18  -9  29 W35G46    29.69R WCI  -3
GUNNISON       MOSUNNY   19   0  43 SW17G24   29.93R WCI   4
KREMMLING      CLOUDY    23   7  50 SW8       29.92S WCI  14
LEADVILLE      MIX PCPN   8  -6  52 NW15G28   29.77R WCI  -9
MONARCH PASS   CLOUDY     0  -6  78 W53       29.76F WCI -32
SALIDA         FAIR      26  -2  28 W25G37    29.91R WCI  11
SUNLIGHT       SNOW     N/A N/A N/A SW12G22   29.82F VSB 1/4
WILKERSON PASS MOSUNNY    7 -11  43 W14G29    29.64F WCI -10
$$

COZ069>075-241900-
...SAN LUIS VALLEY/SANGRE DE CRISTO MOUNTAINS...

CITY           SKY/WX    TMP DP  RH WIND       PRES   REMARKS
ALAMOSA        SUNNY     28 -16  14 NW21G29   29.88S WCI  15
DEL NORTE      FAIR      24  -5  27 W16G26    29.88S WCI  11
LA VETA PASS   MOSUNNY   18  -6  35 S24G46    29.84S WCI   0
SAGUACHE       SUNNY     23   0  36 NW25G33   29.87S WCI   7
$$

COZ035-036-038>040-241900-
...NORTHERN COLORADO FRONT RANGE...

CITY           SKY/WX    TMP DP  RH WIND       PRES   REMARKS
DENVER INTL AP MOSUNNY   32   1  26 W31G44    29.73F WCI  17
DMNS CITY PARK NOT AVBL
AURORA         MOSUNNY   31   0  26 W17G28    29.74F WCI  20
FRONT RANGE AP MOSUNNY   34   1  25 W23G29    29.76F WCI  22
ERIE MUNI ARPT FAIR      32  -2  23 NW5       29.80F WCI  27
BOULDER MUN AP FAIR      32   0  25 S12       29.74S WCI  23
CENTENNIAL     MOSUNNY   30  -1  26 NW24G33   29.74F WCI  16
BROOMFIELD     MOSUNNY   27   3  36 W38G56    29.74F WCI   9
LOVELAND       SUNNY     33  17  51 SE13      29.76S WCI  24
LONGMONT       FAIR      37   4  25 W7        29.76F
$$

COZ041-046-047-076>085-087-088-241900-
...PIKES PEAK/PALMER DIVIDE AND SOUTHERN FOOTHILLS...

CITY           SKY/WX    TMP DP  RH WIND       PRES   REMARKS
COLO. SPRINGS  MOSUNNY   33  -4  20 NW23G35   29.75F WCI  21
A. F. ACADEMY  SUNNY     32  -8  17 NW24G40   29.72F WCI  18
SCHRIEVER AFB  NOT AVBL
CHEYENNE MTN   NOT AVBL
ELLICOTT         N/A    N/A N/A N/A NW16      29.75S
FALCON         FAIR      31  -8  17 MISG      29.74F
FORT CARSON    SUNNY     35  -2  20 N3        29.75F
LIMON          SUNNY     32  12  43 NW18G28   29.76F WCI  20
MONUMENT HILL  SUNNY     28  -6  22 W23G31    29.73F WCI  14
CANON CITY     MOSUNNY   39   0  19 SW20      29.80S
WALSENBURG     FAIR      36  -8  15 W32G43    29.82R
TRINIDAD       SUNNY     38 -10  12 W26G39    29.83R
$$

COZ042>045-048>051-090-091-241900-
...NORTHEAST COLORADO...

CITY           SKY/WX    TMP DP  RH WIND       PRES   REMARKS
GREELEY ARPT   SUNNY     28  12  51 VRB3      29.79S
AKRON          SUNNY     33  11  39 NW26G36   29.76R WCI  20
BURLINGTON     SUNNY     36  18  48 NW22G33   29.77F
WRAY           FAIR      36  16  44 NW25G36   29.77S
YUMA           NOT AVBL
STERLING       FAIR      34   3  27 NW31G39   29.77S WCI  20
HOLYOKE        FAIR      37  10  32 NW23G36   29.76S
FORT MORGAN    FAIR      35   3  26 W20G26    29.78F WCI  25
$$

COZ086-089-092>099-241900-
...SOUTHEAST COLORADO...

CITY           SKY/WX    TMP DP  RH WIND       PRES   REMARKS
PUEBLO         SUNNY     41   8  25 W25G36    29.80F
LA JUNTA       SUNNY     40  23  50 W10       29.83F
LAMAR          MOSUNNY   39  30  70 W14G21    29.82S
SPRINGFIELD      N/A     36  27  69 NW21G32   29.81S
$$





USA.gov is the U.S. government's official web portal to all federal, state and local government web resources and services.